WV5G-13 Weather Reports


time (UTC)temp
C
wind
direction
speed
KPH
gust
KPH
rain 1hr
cm
rain 24hr
cm
rain mn
cm
humidity
%
barometer
mb
20260507151658 8 247 19.3 24.1 0.00 0.00 0.00 90 1018.5
20260507151154 8 254 12.9 19.3 0.00 0.00 0.00 93 1018.4
20260507150652 7 295 8.0 17.7 0.00 0.00 0.00 94 1018.4
20260507150148 7 259 16.1 22.5 0.00 0.00 0.00 95 1018.6
20260507145643 7 273 6.4 20.9 0.00 0.00 0.00 96 1018.4
20260507145136 7 273 3.2 20.9 0.00 0.00 0.00 96 1018.5
20260507144632 6 274 8.0 17.7 0.00 0.00 0.00 97 1018.6
20260507144131 6 259 9.7 20.9 0.00 0.00 0.00 97 1018.8
20260507143627 6 241 12.9 20.9 0.00 0.00 0.00 97 1018.7
20260507143124 6 280 6.4 12.9 0.00 0.00 0.00 97 1018.7
20260507142619 6 302 6.4 17.7 0.00 0.00 0.00 97 1018.9
20260507142117 6 261 14.5 17.7 0.00 0.00 0.00 97 1018.7
20260507141613 6 263 6.4 11.3 0.00 0.00 0.00 97 1018.8
20260507141110 5 237 8.0 24.1 0.00 0.00 0.00 97 1019.0
20260507140606 5 268 11.3 16.1 0.00 0.00 0.00 97 1019.0
20260507140103 5 269 6.4 20.9 0.00 0.00 0.00 97 1019.0
20260507135600 5 287 4.8 12.9 0.00 0.00 0.00 97 1018.8
20260507135058 5 328 6.4 12.9 0.00 0.00 0.00 97 1019.0
20260507134554 5 325 4.8 17.7 0.00 0.00 0.00 97 1019.1
20260507134050 5 236 4.8 14.5 0.00 0.00 0.00 97 1018.9
20260507133546 5 237 8.0 14.5 0.00 0.00 0.00 97 1018.9
20260507133044 5 230 8.0 16.1 0.00 0.00 0.00 97 1019.1
20260507132540 5 336 6.4 11.3 0.00 0.00 0.00 97 1019.1
20260507132037 5 291 6.4 14.5 0.00 0.00 0.00 97 1019.1
20260507131534 5 354 3.2 14.5 0.00 0.00 0.00 97 1018.9
20260507131031 5 315 6.4 17.7 0.00 0.00 0.00 97 1019.0
20260507130528 5 342 4.8 12.9 0.00 0.00 0.00 97 1019.2
20260507130026 5 333 6.4 14.5 0.00 0.00 0.00 97 1018.9
20260507125524 5 312 4.8 11.3 0.00 0.00 0.00 97 1018.8
20260507125021 5 293 4.8 11.3 0.00 0.00 0.00 97 1018.7
20260507124518 5 326 4.8 14.5 0.00 0.00 0.00 97 1018.7
20260507124016 5 326 4.8 12.9 0.00 0.00 0.00 97 1018.8
20260507123514 5 356 4.8 11.3 0.00 0.00 0.00 97 1018.8
20260507123010 5 287 0.0 9.7 0.00 0.00 0.00 97 1018.7
20260507122505 5 251 4.8 11.3 0.00 0.00 0.00 97 1018.6
20260507122001 5 258 9.7 17.7 0.00 0.00 0.00 96 1018.7
20260507121457 5 269 3.2 12.9 0.00 0.00 0.00 96 1018.7
20260507120953 5 325 3.2 11.3 0.00 0.00 0.00 96 1018.6
20260507120449 5 338 6.4 11.3 0.00 0.00 0.00 96 1018.6
20260507115946 5 328 8.0 11.3 0.00 0.00 0.00 96 1018.8
20260507115442 5 336 3.2 8.0 0.00 0.00 0.00 96 1018.5
20260507114938 5 310 6.4 12.9 0.00 0.00 0.00 96 1018.5
20260507114435 5 312 4.8 8.0 0.00 0.00 0.00 96 1018.4
20260507113932 5 267 3.2 12.9 0.00 0.00 0.00 96 1018.4
20260507113429 5 340 6.4 11.3 0.00 0.00 0.00 96 1018.4
20260507112926 5 339 8.0 11.3 0.00 0.00 0.00 96 1018.6
20260507112424 5 303 4.8 9.7 0.00 0.00 0.00 96 1018.6
20260507111921 5 319 4.8 9.7 0.00 0.00 0.00 96 1018.6
20260507111418 5 313 8.0 14.5 0.00 0.00 0.00 96 1018.2
20260507110914 5 346 3.2 8.0 0.00 0.00 0.00 96 1018.4
20260507110410 5 267 3.2 11.3 0.00 0.00 0.00 95 1018.4
20260507105907 5 327 6.4 9.7 0.00 0.00 0.00 95 1018.4
20260507105404 5 5 3.2 8.0 0.00 0.00 0.00 95 1018.4
20260507104901 5 310 4.8 8.0 0.00 0.00 0.00 95 1018.6
20260507104357 5 323 4.8 11.3 0.00 0.00 0.00 95 1018.5
20260507103853 5 332 4.8 14.5 0.00 0.00 0.00 95 1018.6
20260507103350 5 332 8.0 9.7 0.00 0.00 0.00 95 1018.7
20260507102846 5 333 9.7 11.3 0.00 0.00 0.00 95 1018.5
20260507102343 5 336 8.0 11.3 0.00 0.00 0.00 95 1018.6
20260507101839 5 339 4.8 9.7 0.00 0.00 0.00 95 1018.7
20260507101334 5 344 4.8 11.3 0.00 0.00 0.00 95 1018.6
20260507100832 5 349 3.2 8.0 0.00 0.00 0.00 95 1018.7
20260507100329 5 339 4.8 9.7 0.00 0.00 0.00 95 1018.4
20260507095827 5 354 3.2 6.4 0.00 0.00 0.00 95 1018.6
20260507095323 5 0 3.2 6.4 0.00 0.00 0.00 95 1018.7
20260507094821 5 338 3.2 6.4 0.00 0.00 0.00 95 1018.6
20260507094317 5 356 3.2 4.8 0.00 0.00 0.00 95 1018.6
20260507093814 5 338 3.2 4.8 0.00 0.00 0.00 94 1018.6
20260507093313 5 346 4.8 6.4 0.00 0.00 0.00 94 1018.4
20260507092810 5 357 4.8 8.0 0.00 0.00 0.00 94 1018.7
20260507092307 5 337 4.8 8.0 0.00 0.00 0.00 94 1018.5
20260507091803 5 341 4.8 6.4 0.00 0.00 0.00 94 1018.4
20260507091300 5 336 4.8 8.0 0.00 0.00 0.00 94 1018.4
20260507090759 5 337 8.0 17.7 0.00 0.00 0.00 94 1018.6
20260507090257 5 69 0.0 0.0 0.00 0.00 0.00 93 1018.4
20260507085754 5 69 0.0 1.6 0.00 0.00 0.00 93 1018.1
20260507085250 5 80 0.0 3.2 0.00 0.00 0.00 93 1018.2
20260507084748 5 141 0.0 3.2 0.00 0.00 0.00 93 1018.1
20260507084244 5 132 0.0 3.2 0.00 0.00 0.00 92 1018.1
20260507083742 5 84 1.6 3.2 0.00 0.00 0.00 92 1018.5
20260507083238 5 88 1.6 4.8 0.00 0.00 0.00 92 1018.2
20260507082734 5 86 3.2 4.8 0.00 0.00 0.00 92 1018.1
20260507082230 5 71 3.2 4.8 0.00 0.00 0.00 91 1018.1
20260507081727 5 61 6.4 6.4 0.00 0.00 0.00 91 1018.6
20260507081223 5 49 4.8 6.4 0.00 0.00 0.00 91 1018.2
20260507080720 5 43 6.4 8.0 0.00 0.00 0.00 91 1018.5
20260507080216 6 68 4.8 9.7 0.00 0.00 0.00 91 1018.7
20260507075711 6 43 8.0 9.7 0.00 0.00 0.00 90 1018.6
20260507075208 6 78 4.8 8.0 0.00 0.00 0.00 90 1018.2
20260507074704 6 61 9.7 14.5 0.00 0.00 0.00 90 1018.1
20260507074203 6 56 6.4 12.9 0.00 0.00 0.00 89 1017.8
20260507073659 6 109 11.3 12.9 0.00 0.00 0.00 89 1018.0
20260507073155 6 33 6.4 11.3 0.00 0.00 0.00 88 1018.9
20260507072653 6 357 6.4 14.5 0.00 0.00 0.00 87 1019.4
20260507072150 6 10 11.3 16.1 0.00 0.00 0.00 86 1018.9
20260507071648 6 12 14.5 17.7 0.00 0.00 0.00 84 1018.9
20260507071144 6 29 14.5 17.7 0.00 0.00 0.00 82 1019.4
20260507070641 7 344 9.7 14.5 0.00 0.00 0.00 79 1019.5
20260507070138 7 4 4.8 16.1 0.00 0.00 0.00 77 1019.8
20260507065634 7 11 6.4 14.5 0.00 0.00 0.00 75 1019.7
20260507065131 7 11 12.9 17.7 0.00 0.00 0.00 74 1019.8
20260507064629 7 22 11.3 22.5 0.00 0.00 0.00 72 1019.5
20260507064127 7 0 17.7 17.7 0.00 0.00 0.00 72 1019.6
20260507063624 7 20 11.3 19.3 0.00 0.00 0.00 71 1019.8
20260507063121 7 0 17.7 17.7 0.00 0.00 0.00 70 1019.8
20260507062618 7 43 9.7 16.1 0.00 0.00 0.00 69 1019.1
20260507062116 7 37 14.5 19.3 0.00 0.00 0.00 69 1019.4
20260507061613 7 28 16.1 22.5 0.00 0.00 0.00 68 1019.5
20260507061111 7 24 20.9 22.5 0.00 0.00 0.00 68 1019.0
20260507060609 7 33 20.9 24.1 0.00 0.00 0.00 68 1019.1
20260507060105 7 30 17.7 25.7 0.00 0.00 0.00 67 1018.8
20260507055601 7 31 12.9 30.6 0.00 0.00 0.00 67 1018.6
20260507055057 7 32 14.5 24.1 0.00 0.00 0.00 67 1018.6
20260507054553 7 42 22.5 30.6 0.00 0.00 0.00 67 1018.9
20260507054050 7 27 16.1 33.8 0.00 0.00 0.00 66 1018.8
20260507053548 7 31 20.9 32.2 0.00 0.00 0.00 66 1018.9
20260507053047 8 16 20.9 32.2 0.00 0.00 0.00 65 1019.0
20260507052544 8 21 11.3 27.4 0.00 0.00 0.00 65 1018.7
20260507052040 7 30 17.7 24.1 0.00 0.00 0.00 65 1018.2
20260507051538 8 36 22.5 33.8 0.00 0.00 0.00 65 1018.5
20260507051035 8 42 27.4 33.8 0.00 0.00 0.00 65 1018.6
20260507050531 8 26 29.0 37.0 0.00 0.00 0.00 65 1018.4
20260507050028 7 33 25.7 32.2 0.00 0.00 0.00 65 1018.4
20260507045524 7 21 24.1 35.4 0.00 0.00 0.00 65 1018.7
20260507045022 7 16 19.3 32.2 0.00 0.00 0.00 65 1018.9
20260507044518 8 17 19.3 40.2 0.00 0.00 0.00 64 1018.7
20260507044015 8 9 40.2 41.8 0.00 0.00 0.00 63 1019.0
20260507043511 8 19 27.4 32.2 0.00 0.00 0.00 61 1018.8
20260507043009 8 14 27.4 38.6 0.00 0.00 0.00 61 1018.4
20260507042504 8 18 27.4 40.2 0.00 0.00 0.00 60 1018.4
20260507042000 8 22 37.0 43.5 0.00 0.00 0.00 60 1018.5
20260507041457 8 17 29.0 45.1 0.00 0.00 0.00 60 1018.5
20260507040954 8 23 37.0 43.5 0.00 0.00 0.00 60 1018.2
20260507040450 8 23 27.4 40.2 0.00 0.00 0.00 60 1018.2
20260507035946 8 11 24.1 35.4 0.00 0.00 0.00 59 1018.2
20260507035443 9 16 32.2 37.0 0.00 0.00 0.00 59 1018.4
20260507034939 9 23 35.4 38.6 0.00 0.00 0.00 59 1018.0
20260507034436 9 20 20.9 32.2 0.00 0.00 0.00 58 1018.2
20260507033935 9 15 30.6 40.2 0.00 0.00 0.00 58 1018.1
20260507033432 10 16 27.4 46.7 0.00 0.00 0.00 58 1018.0
20260507032928 10 23 22.5 46.7 0.00 0.00 0.00 58 1018.0
20260507032426 10 29 27.4 45.1 0.00 0.00 0.00 58 1018.0
20260507031921 10 13 30.6 48.3 0.00 0.00 0.00 56 1017.9
20260507031418 10 15 27.4 37.0 0.00 0.00 0.00 56 1017.7
20260507030915 10 22 33.8 43.5 0.00 0.00 0.00 56 1017.6
20260507030413 10 20 38.6 48.3 0.00 0.00 0.00 56 1017.2
20260507025909 10 19 24.1 41.8 0.00 0.00 0.00 56 1017.4
20260507025407 10 17 25.7 38.6 0.00 0.00 0.00 55 1017.4
20260507024905 10 21 29.0 40.2 0.00 0.00 0.00 55 1017.5
20260507024402 11 16 22.5 41.8 0.00 0.00 0.00 55 1017.0
20260507023857 11 28 29.0 45.1 0.00 0.00 0.00 54 1016.9
20260507023354 11 13 30.6 48.3 0.00 0.00 0.00 54 1016.8
20260507022852 11 16 22.5 43.5 0.00 0.00 0.00 53 1016.4
20260507022348 11 8 14.5 37.0 0.00 0.00 0.00 53 1016.1
20260507021844 11 15 24.1 45.1 0.00 0.00 0.00 52 1016.5
20260507021339 12 5 30.6 38.6 0.00 0.00 0.00 52 1016.1
20260507020837 12 13 20.9 32.2 0.00 0.00 0.00 52 1016.1
20260507020334 12 23 20.9 30.6 0.00 0.00 0.00 53 1015.8
20260507015831 11 18 11.3 32.2 0.00 0.00 0.00 54 1015.7
20260507015329 11 23 17.7 25.7 0.00 0.00 0.00 54 1015.2
20260507014826 11 37 17.7 25.7 0.00 0.00 0.00 54 1015.1
20260507014322 11 33 19.3 27.4 0.00 0.00 0.00 54 1014.9
20260507013818 12 25 24.1 32.2 0.00 0.00 0.00 53 1014.6
20260507013316 12 33 17.7 29.0 0.00 0.00 0.00 53 1014.6
20260507012813 12 29 24.1 27.4 0.00 0.00 0.00 53 1014.1
20260507012309 12 43 20.9 30.6 0.00 0.00 0.00 52 1013.9
20260507011806 12 65 22.5 30.6 0.00 0.00 0.00 51 1014.0
20260507011303 12 53 16.1 29.0 0.00 0.00 0.00 50 1013.9
20260507010802 13 65 25.7 37.0 0.00 0.00 0.00 50 1013.6
20260507010258 13 52 20.9 32.2 0.00 0.00 0.00 50 1013.7
20260507005756 13 54 24.1 38.6 0.00 0.00 0.00 49 1013.3
20260507005252 13 58 24.1 37.0 0.00 0.00 0.00 49 1013.3
20260507004749 13 64 19.3 32.2 0.00 0.00 0.00 48 1013.2
20260507004246 14 71 16.1 29.0 0.00 0.00 0.00 47 1013.2
20260507003742 14 73 12.9 30.6 0.00 0.00 0.00 48 1013.3
20260507003238 13 63 24.1 38.6 0.00 0.00 0.00 48 1013.0
20260507002734 14 60 22.5 35.4 0.00 0.00 0.00 47 1013.1
20260507002230 14 83 27.4 37.0 0.00 0.00 0.00 46 1013.0
20260507001727 15 87 20.9 29.0 0.00 0.00 0.00 46 1013.1
20260507001225 14 61 24.1 37.0 0.00 0.00 0.00 46 1012.9
20260507000721 14 44 29.0 41.8 0.00 0.00 0.00 47 1012.9
20260507000216 14 69 40.2 41.8 0.00 0.00 0.00 47 1012.3
20260506235714 15 91 19.3 30.6 0.00 0.00 0.00 45 1012.8
20260506235209 15 97 25.7 25.7 0.00 0.00 0.00 46 1012.5
20260506234706 15 96 17.7 30.6 0.00 0.00 0.00 46 1012.2
20260506234204 15 54 24.1 35.4 0.00 0.00 0.00 46 1012.3
20260506233701 15 72 22.5 43.5 0.00 0.00 0.00 46 1012.6
20260506233157 15 99 22.5 32.2 0.00 0.00 0.00 46 1012.8
20260506232654 15 92 22.5 29.0 0.00 0.00 0.00 45 1012.8
20260506232149 15 72 17.7 27.4 0.00 0.00 0.00 46 1012.7
20260506231646 15 97 20.9 25.7 0.00 0.00 0.00 47 1012.8
20260506231145 15 85 24.1 35.4 0.00 0.00 0.00 47 1012.7
20260506230641 15 73 24.1 30.6 0.00 0.00 0.00 47 1012.8
20260506230138 15 68 22.5 41.8 0.00 0.00 0.00 46 1012.7
20260506225635 15 72 17.7 35.4 0.00 0.00 0.00 47 1012.7
20260506225131 15 94 8.0 25.7 0.00 0.00 0.00 46 1012.6
20260506224628 15 113 20.9 38.6 0.00 0.00 0.00 46 1012.7
20260506224124 15 77 22.5 25.7 0.00 0.00 0.00 47 1013.0
20260506223621 14 79 17.7 33.8 0.00 0.00 0.00 47 1012.8
20260506223117 15 71 20.9 30.6 0.00 0.00 0.00 47 1012.7
20260506222614 14 102 30.6 33.8 0.00 0.00 0.00 48 1012.9
20260506222110 14 87 25.7 38.6 0.00 0.00 0.00 48 1013.0
20260506221608 15 63 37.0 41.8 0.00 0.00 0.00 47 1012.8
20260506221106 13 79 12.9 29.0 0.00 0.00 0.00 49 1012.8
20260506220602 15 76 27.4 38.6 0.00 0.00 0.00 47 1012.7
20260506220057 14 42 20.9 35.4 0.00 0.00 0.00 49 1012.8
20260506215554 13 63 24.1 43.5 0.00 0.00 0.00 49 1012.9
20260506215050 13 66 24.1 37.0 0.00 0.00 0.00 50 1012.8
20260506214547 13 64 30.6 53.1 0.00 0.00 0.00 50 1013.2
20260506214044 13 80 38.6 54.7 0.00 0.00 0.00 50 1012.9
20260506213543 14 79 24.1 40.2 0.00 0.00 0.00 49 1012.9
20260506213040 13 69 24.1 40.2 0.00 0.00 0.00 51 1013.2
20260506212536 14 75 22.5 33.8 0.00 0.00 0.00 49 1013.2
20260506212031 15 45 40.2 46.7 0.00 0.00 0.00 48 1013.1
20260506211527 15 51 14.5 32.2 0.00 0.00 0.00 48 1013.3
20260506211025 13 79 20.9 32.2 0.00 0.00 0.00 51 1013.2
20260506210521 13 87 24.1 40.2 0.00 0.00 0.00 51 1013.2
20260506210018 13 76 19.3 35.4 0.00 0.00 0.00 50 1013.3
20260506205514 14 64 33.8 33.8 0.00 0.00 0.00 49 1013.2
20260506205010 14 122 14.5 38.6 0.00 0.00 0.00 49 1013.2
20260506204508 14 108 19.3 33.8 0.00 0.00 0.00 48 1013.3
20260506204004 13 101 22.5 38.6 0.00 0.00 0.00 51 1013.1
20260506203503 13 58 30.6 46.7 0.00 0.00 0.00 50 1013.5
20260506202958 15 72 40.2 69.2 0.00 0.00 0.00 46 1013.3
20260506202456 15 82 17.7 35.4 0.00 0.00 0.00 46 1013.3
20260506201947 15 127 30.6 37.0 0.00 0.00 0.00 47 1013.0
20260506201444 14 88 12.9 32.2 0.00 0.00 0.00 48 1013.1
20260506200941 15 66 24.1 40.2 0.00 0.00 0.00 47 1012.9
20260506200437 15 80 32.2 32.2 0.00 0.00 0.00 45 1013.3
20260506195933 14 93 12.9 32.2 0.00 0.00 0.00 48 1013.2
20260506195431 13 115 20.9 35.4 0.00 0.00 0.00 50 1013.1
20260506194927 13 117 17.7 32.2 0.00 0.00 0.00 48 1013.5
20260506194424 14 107 14.5 24.1 0.00 0.00 0.00 48 1013.5
20260506193921 13 46 17.7 22.5 0.00 0.00 0.00 52 1013.6
20260506193419 13 96 11.3 20.9 0.00 0.00 0.00 51 1013.6
20260506192915 14 98 17.7 30.6 0.00 0.00 0.00 48 1013.6
20260506192412 14 21 20.9 29.0 0.00 0.00 0.00 49 1013.7
20260506191909 13 70 16.1 27.4 0.00 0.00 0.00 50 1013.8
20260506191405 12 61 14.5 29.0 0.00 0.00 0.00 52 1013.7
20260506190902 12 86 14.5 33.8 0.00 0.00 0.00 51 1013.8
20260506190358 14 75 16.1 24.1 0.00 0.00 0.00 49 1013.7
20260506185855 14 88 17.7 25.7 0.00 0.00 0.00 50 1013.6
20260506185352 13 47 22.5 35.4 0.00 0.00 0.00 52 1013.5
20260506184849 12 63 25.7 27.4 0.00 0.00 0.00 54 1013.9
20260506184346 12 98 25.7 27.4 0.00 0.00 0.00 55 1014.1
20260506183844 12 85 17.7 27.4 0.00 0.00 0.00 53 1014.2
20260506183339 13 101 27.4 29.0 0.00 0.00 0.00 52 1014.0
20260506182836 13 99 9.7 25.7 0.00 0.00 0.00 52 1014.2
20260506182333 12 117 16.1 29.0 0.00 0.00 0.00 56 1014.3
20260506181831 11 89 17.7 29.0 0.00 0.00 0.00 56 1014.8
20260506181329 12 55 19.3 30.6 0.00 0.00 0.00 54 1014.2
20260506180825 11 29 11.3 19.3 0.00 0.00 0.00 56 1014.3
20260506180322 11 113 12.9 29.0 0.00 0.00 0.00 58 1014.7
20260506175818 11 111 14.5 27.4 0.00 0.00 0.00 57 1014.6
20260506175315 12 66 24.1 32.2 0.00 0.00 0.00 55 1014.6
20260506174812 11 303 0.0 17.7 0.00 0.00 0.00 57 1014.5
20260506174309 11 88 9.7 27.4 0.00 0.00 0.00 58 1015.0
20260506173807 10 67 17.7 25.7 0.00 0.00 0.00 60 1014.7
20260506173303 11 91 14.5 27.4 0.00 0.00 0.00 59 1014.7
20260506172800 11 66 8.0 24.1 0.00 0.00 0.00 57 1014.8
20260506172257 12 83 24.1 35.4 0.00 0.00 0.00 57 1014.5
20260506171755 11 63 14.5 27.4 0.00 0.00 0.00 59 1014.6
20260506171251 11 42 20.9 30.6 0.00 0.00 0.00 59 1014.7
20260506170749 11 52 8.0 29.0 0.00 0.00 0.00 60 1014.5
20260506170245 11 82 8.0 29.0 0.00 0.00 0.00 59 1014.6
20260506165744 11 84 17.7 30.6 0.00 0.00 0.00 59 1014.7
20260506165241 11 100 17.7 25.7 0.00 0.00 0.00 59 1014.5
20260506164738 10 89 12.9 27.4 0.00 0.00 0.00 61 1014.5
20260506164235 10 54 24.1 35.4 0.00 0.00 0.00 60 1014.7
20260506163732 10 60 22.5 27.4 0.00 0.00 0.00 63 1014.6
20260506163226 11 66 24.1 25.7 0.00 0.00 0.00 60 1014.5
20260506162723 10 94 16.1 22.5 0.00 0.00 0.00 62 1014.3
20260506162220 9 73 8.0 25.7 0.00 0.00 0.00 63 1014.6
20260506161712 10 109 8.0 24.1 0.00 0.00 0.00 61 1014.6
20260506161209 10 65 16.1 24.1 0.00 0.00 0.00 62 1014.5
20260506160707 10 32 8.0 25.7 0.00 0.00 0.00 63 1014.1
20260506160203 9 111 22.5 29.0 0.00 0.00 0.00 64 1014.2
20260506155702 10 87 16.1 30.6 0.00 0.00 0.00 64 1014.0
20260506155158 8 80 14.5 22.5 0.00 0.00 0.00 65 1013.9
20260506153300 8 81 14.5 22.5 0.00 0.00 0.00 66 1014.2
20260506152757 8 55 11.3 14.5 0.00 0.00 0.00 67 1014.0
20260506152254 8 82 17.7 20.9 0.00 0.00 0.00 67 1013.6